KD4VIF Weather Reports


Display with metric or nautical units.
time (UTC)temp
F
wind
direction
speed
MPH
gust
MPH
rain 1hr
in
rain 24hr
in
rain mn
in
humidity
%
barometer
mb
20260510224556 75 16 0.0 0.0 0.00 0.00 0.00 100 1013.3
20260510224057 75 16 0.0 0.0 0.00 0.00 0.00 100 1013.2
20260510223557 76 16 0.0 0.0 0.00 0.00 0.00 100 1013.2
20260510223057 77 16 0.0 0.0 0.00 0.00 0.00 100 1013.2
20260510222558 76 232 0.0 0.0 0.00 0.00 0.00 100 1013.1
20260510221557 76 232 0.0 0.0 0.00 0.00 0.00 100 1013.2
20260510214556 80 237 0.0 1.0 0.00 0.00 0.00 100 1013.0
20260510214058 80 160 0.0 3.0 0.00 0.00 0.00 100 1013.0
20260510212558 78 33 0.0 2.0 0.00 0.00 0.00 100 1012.9
20260510212057 80 261 1.0 2.0 0.00 0.00 0.00 100 1012.9
20260510211057 78 23 0.0 1.0 0.00 0.00 0.00 100 1012.9
20260510210556 79 42 0.0 1.0 0.00 0.00 0.00 100 1012.8
20260510210057 80 178 0.0 3.0 0.00 0.00 0.00 100 1012.8
20260510205557 81 223 1.0 4.0 0.00 0.00 0.00 100 1012.8
20260510205057 81 233 0.0 4.0 0.00 0.00 0.00 100 1012.9
20260510204058 80 312 0.0 1.0 0.00 0.00 0.00 100 1012.9
20260510203057 80 292 0.0 3.0 0.00 0.00 0.00 100 1013.0
20260510194555 80 64 0.0 0.0 0.00 0.00 0.00 100 1013.2
20260510194057 80 262 0.0 2.0 0.00 0.00 0.00 100 1013.3
20260510193555 80 262 0.0 4.0 0.00 0.00 0.00 100 1013.2
20260510192056 80 168 0.0 1.0 0.00 0.00 0.00 100 1013.4
20260510191556 80 71 0.0 1.0 0.00 0.00 0.00 100 1013.5
20260510185558 80 281 0.0 2.0 0.00 0.00 0.00 100 1013.7
20260510184057 80 282 3.0 4.0 0.00 0.00 0.00 100 1013.7
20260510183555 80 174 0.0 4.0 0.00 0.00 0.00 100 1013.8
20260510183057 80 240 0.0 3.0 0.00 0.00 0.00 100 1013.8
20260510182056 80 274 0.0 2.0 0.00 0.00 0.00 100 1013.9
20260510181555 79 285 0.0 2.0 0.00 0.00 0.00 100 1013.8
20260510180556 79 323 0.0 4.0 0.00 0.00 0.00 100 1014.1
20260510175557 79 185 0.0 0.0 0.00 0.00 0.00 100 1014.1
20260510175056 79 185 0.0 0.0 0.00 0.00 0.00 100 1014.2
20260510174556 79 299 0.0 2.0 0.00 0.00 0.00 100 1014.2
20260510174056 79 299 0.0 3.0 0.00 0.00 0.00 100 1014.2
20260510173556 79 322 0.0 3.0 0.00 0.00 0.00 100 1014.5
20260510173056 78 19 3.0 2.0 0.00 0.00 0.00 100 1014.4
20260510172056 78 174 0.0 2.0 0.00 0.00 0.00 100 1014.5
20260510171057 77 274 0.0 2.0 0.00 0.00 0.00 100 1014.5
20260510170555 78 307 0.0 2.0 0.00 0.00 0.00 100 1014.6
20260510164555 76 151 0.0 1.0 0.00 0.00 0.00 100 1014.6
20260510164056 76 28 0.0 1.0 0.00 0.00 0.00 100 1014.7
20260510163556 76 264 0.0 0.0 0.00 0.00 0.00 100 1014.6
20260510162056 75 264 0.0 0.0 0.00 0.00 0.00 100 1014.8
20260510160555 75 277 2.0 3.0 0.00 0.00 0.00 100 1014.8
20260510160056 74 275 0.0 4.0 0.00 0.00 0.00 100 1014.9
20260510155556 74 275 0.0 1.0 0.00 0.00 0.00 100 1014.9
20260510155056 73 136 0.0 1.0 0.00 0.00 0.00 100 1015.0
20260510154555 73 150 0.0 1.0 0.00 0.00 0.00 100 1015.0
20260510154057 74 220 1.0 1.0 0.00 0.00 0.00 100 1015.0
20260510153555 73 113 0.0 2.0 0.00 0.00 0.00 100 1015.0
20260510153056 74 285 0.0 2.0 0.00 0.00 0.00 100 1015.0
20260510152557 73 289 2.0 3.0 0.00 0.00 0.00 100 1014.9
20260510152056 72 286 1.0 2.0 0.00 0.00 0.00 100 1015.0
20260510151555 72 126 1.0 3.0 0.00 0.00 0.00 100 1015.0
20260510151056 72 270 1.0 2.0 0.00 0.00 0.00 100 1014.9
20260510150556 72 158 0.0 1.0 0.00 0.00 0.00 100 1014.9
20260510145055 71 299 0.0 2.0 0.00 0.00 0.00 100 1014.8
20260510144555 70 220 0.0 1.0 0.00 0.00 0.00 100 1014.9
20260510144056 70 210 0.0 1.0 0.00 0.00 0.00 100 1014.9
20260510143555 70 237 0.0 0.0 0.00 0.00 0.00 100 1014.8
20260510143057 70 237 0.0 0.0 0.00 0.00 0.00 100 1014.7
20260510142556 69 237 0.0 0.0 0.00 0.00 0.00 100 1014.8
20260510142055 69 237 0.0 0.0 0.00 0.00 0.00 100 1014.9
20260510141555 69 237 0.0 0.0 0.00 0.00 0.00 100 1014.8
20260510141056 68 237 0.0 0.0 0.00 0.00 0.00 100 1014.8
20260510140555 68 237 0.0 0.0 0.00 0.00 0.00 100 1014.9
20260510140056 68 237 0.0 0.0 0.00 0.00 0.00 100 1014.9
20260510135555 68 237 0.0 0.0 0.00 0.00 0.00 100 1014.9
20260510135056 67 237 0.0 0.0 0.00 0.00 0.00 100 1015.0
20260510134555 67 237 0.0 0.0 0.00 0.00 0.00 100 1015.0
20260510133056 66 237 0.0 0.0 0.00 0.00 0.00 100 1014.9
20260510132056 65 237 0.0 0.0 0.00 0.00 0.00 100 1014.7
20260510131056 64 237 0.0 0.0 0.00 0.00 0.00 100 1014.7
20260510130055 63 237 0.0 0.0 0.00 0.00 0.00 100 1014.8
20260510125055 62 237 0.0 0.0 0.00 0.00 0.00 100 1014.7
20260510124555 62 237 0.0 0.0 0.00 0.00 0.00 100 1014.8
20260510124055 62 237 0.0 0.0 0.00 0.00 0.00 100 1014.9
20260510123932 62 237 0.0 0.0 0.00 0.00 0.00 100 1014.8
20260510123556 62 237 0.0 0.0 0.00 0.00 0.00 100 1014.8
20260510123411 62 237 0.0 0.0 0.00 0.00 0.00 100 1014.9
20260510123055 62 237 0.0 0.0 0.00 0.00 0.00 100 1014.9
20260510122354 61 237 0.0 0.0 0.00 0.00 0.00 100 1014.7
20260510122055 61 237 0.0 0.0 0.00 0.00 0.00 100 1014.7
20260510121116 60 237 0.0 0.0 0.00 0.00 0.00 100 1014.4
20260510120555 60 237 0.0 0.0 0.00 0.00 0.00 100 1014.4
20260510120502 60 237 0.0 0.0 0.00 0.00 0.00 100 1014.3
20260510120055 60 237 0.0 0.0 0.00 0.00 0.00 100 1014.3
20260510115228 60 237 0.0 0.0 0.00 0.00 0.00 100 1014.2
20260510115054 60 237 0.0 0.0 0.00 0.00 0.00 100 1014.3
20260510114555 60 237 0.0 0.0 0.00 0.00 0.00 100 1014.2
20260510114100 59 237 0.0 0.0 0.00 0.00 0.00 100 1014.1
20260510114054 60 237 0.0 0.0 0.00 0.00 0.00 100 1014.0
20260510113555 59 237 0.0 0.0 0.00 0.00 0.00 100 1014.1
20260510113540 59 237 0.0 0.0 0.00 0.00 0.00 100 1014.0
20260510113055 59 237 0.0 0.0 0.00 0.00 0.00 100 1014.0
20260510112544 59 237 0.0 0.0 0.00 0.00 0.00 100 1013.8
20260510112055 59 237 0.0 0.0 0.00 0.00 0.00 100 1013.8
20260510111500 59 237 0.0 0.0 0.00 0.00 0.00 100 1013.8
20260510111157 59 237 0.0 0.0 0.00 0.00 0.00 100 1013.8
20260510111055 59 237 0.0 0.0 0.00 0.00 0.00 100 1013.8
20260510110954 59 237 0.0 0.0 0.00 0.00 0.00 100 1013.7
20260510110554 59 237 0.0 0.0 0.00 0.00 0.00 100 1013.8
20260510110055 59 237 0.0 0.0 0.00 0.00 0.00 100 1013.7
20260510105141 59 237 0.0 0.0 0.00 0.00 0.00 100 1013.5
20260510105055 59 237 0.0 0.0 0.00 0.00 0.00 100 1013.6
20260510104614 59 237 0.0 0.0 0.00 0.00 0.00 100 1013.4
20260510104554 59 237 0.0 0.0 0.00 0.00 0.00 100 1013.5
20260510104054 59 237 0.0 0.0 0.00 0.00 0.00 100 1013.4
20260510103054 59 237 0.0 0.0 0.00 0.00 0.00 100 1013.2
20260510102556 59 237 0.0 0.0 0.00 0.00 0.00 100 1013.1
20260510102055 59 237 0.0 0.0 0.00 0.00 0.00 100 1013.0
20260510101428 59 237 0.0 0.0 0.00 0.00 0.00 100 1012.8
20260510101056 59 237 0.0 0.0 0.00 0.00 0.00 100 1012.8
20260510100740 59 237 0.0 0.0 0.00 0.00 0.00 100 1012.7
20260510100554 59 237 0.0 0.0 0.00 0.00 0.00 100 1012.7
20260510100056 59 237 0.0 0.0 0.00 0.00 0.00 100 1012.7
20260510095346 60 237 0.0 0.0 0.00 0.00 0.00 100 1012.6
20260510095151 59 237 0.0 0.0 0.00 0.00 0.00 100 1012.6
20260510095056 60 237 0.0 0.0 0.00 0.00 0.00 100 1012.6
20260510094555 59 237 0.0 0.0 0.00 0.00 0.00 100 1012.6
20260510094056 60 237 0.0 0.0 0.00 0.00 0.00 100 1012.7
20260510092554 60 237 0.0 0.0 0.00 0.00 0.00 100 1012.5
20260510092539 60 237 0.0 0.0 0.00 0.00 0.00 100 1012.4
20260510092306 60 237 0.0 0.0 0.00 0.00 0.00 100 1012.2
20260510092054 60 237 0.0 0.0 0.00 0.00 0.00 100 1012.4
20260510091555 60 237 0.0 0.0 0.00 0.00 0.00 100 1012.2
20260510091054 60 237 0.0 0.0 0.00 0.00 0.00 100 1012.3
20260510090555 60 237 0.0 0.0 0.00 0.00 0.00 100 1012.4
20260510090525 60 237 0.0 0.0 0.00 0.00 0.00 100 1012.0
20260510090054 60 237 0.0 0.0 0.00 0.00 0.00 100 1012.0
20260510085054 60 237 0.0 0.0 0.00 0.00 0.00 100 1011.9
20260510084836 60 237 0.0 0.0 0.00 0.00 0.00 100 1011.9
20260510084054 60 237 0.0 0.0 0.00 0.00 0.00 100 1011.9
20260510083555 60 237 0.0 0.0 0.00 0.00 0.00 100 1011.9
20260510083103 60 237 0.0 0.0 0.00 0.00 0.00 100 1011.7
20260510083056 60 237 0.0 0.0 0.00 0.00 0.00 100 1011.8
20260510082554 60 237 0.0 0.0 0.00 0.00 0.00 100 1011.9
20260510082239 60 237 0.0 0.0 0.00 0.00 0.00 100 1011.6
20260510082055 60 237 0.0 0.0 0.00 0.00 0.00 100 1011.7
20260510081554 60 237 0.0 0.0 0.00 0.00 0.00 100 1011.6
20260510081054 60 237 0.0 0.0 0.00 0.00 0.00 100 1011.5
20260510080054 60 237 0.0 0.0 0.00 0.00 0.00 100 1011.4
20260510075555 60 237 0.0 0.0 0.00 0.00 0.00 100 1011.3
20260510075054 60 237 0.0 0.0 0.00 0.00 0.00 100 1011.4
20260510074555 60 237 0.0 0.0 0.00 0.00 0.00 100 1011.4
20260510074305 60 237 0.0 0.0 0.00 0.00 0.00 100 1011.1
20260510074054 60 237 0.0 0.0 0.00 0.00 0.00 100 1011.2
20260510073554 60 237 0.0 0.0 0.00 0.00 0.00 100 1011.1
20260510073431 60 237 0.0 0.0 0.00 0.00 0.00 100 1011.2
20260510073054 60 237 0.0 0.0 0.00 0.00 0.00 100 1011.2
20260510072554 60 237 0.0 0.0 0.00 0.00 0.00 100 1011.4
20260510072055 60 237 0.0 0.0 0.00 0.00 0.00 100 1011.4
20260510071953 60 237 0.0 0.0 0.00 0.00 0.00 100 1011.6
20260510071554 60 237 0.0 0.0 0.00 0.00 0.00 100 1011.6
20260510071054 59 237 0.0 0.0 0.00 0.00 0.00 100 1011.5
20260510070850 60 237 0.0 0.0 0.00 0.00 0.00 100 1011.5
20260510070554 60 237 0.0 0.0 0.00 0.00 0.00 100 1011.5
20260510070336 60 237 0.0 0.0 0.00 0.00 0.00 100 1011.4
20260510070054 60 237 0.0 0.0 0.00 0.00 0.00 100 1011.4
20260510065056 60 237 0.0 0.0 0.00 0.00 0.00 100 1011.3
20260510063054 60 237 0.0 0.0 0.00 0.00 0.00 100 1011.2
20260510062555 60 237 0.0 0.0 0.00 0.00 0.00 100 1011.2
20260510062054 60 237 0.0 0.0 0.00 0.00 0.00 100 1011.4
20260510061554 60 237 0.0 0.0 0.00 0.00 0.00 100 1011.4
20260510061246 60 237 0.0 0.0 0.00 0.00 0.00 100 1011.4
20260510061054 60 237 0.0 0.0 0.00 0.00 0.00 100 1011.4
20260510060554 60 237 0.0 0.0 0.00 0.00 0.00 100 1011.4
20260510060054 60 237 0.0 0.0 0.00 0.00 0.00 100 1011.6
20260510055924 60 237 0.0 0.0 0.00 0.00 0.00 100 1011.5
20260510055555 60 237 0.0 0.0 0.00 0.00 0.00 100 1011.5
20260510055354 60 237 0.0 0.0 0.00 0.00 0.00 100 1011.8
20260510055053 60 237 0.0 0.0 0.00 0.00 0.00 100 1011.8
20260510054554 60 237 0.0 0.0 0.00 0.00 0.00 100 1011.7
20260510054053 60 237 0.0 0.0 0.00 0.00 0.00 100 1011.6
20260510053554 60 237 0.0 0.0 0.00 0.00 0.00 100 1011.8
20260510053453 60 237 0.0 0.0 0.00 0.00 0.00 100 1011.6
20260510053054 60 237 0.0 0.0 0.00 0.00 0.00 100 1011.6
20260510052554 61 237 0.0 0.0 0.00 0.00 0.00 100 1011.7
20260510052509 61 237 0.0 0.0 0.00 0.00 0.00 100 1011.6
20260510052115 61 237 0.0 0.0 0.00 0.00 0.00 100 1011.6
20260510052054 61 237 0.0 0.0 0.00 0.00 0.00 100 1011.6
20260510051554 61 237 0.0 0.0 0.00 0.00 0.00 100 1011.6
20260510051054 61 237 0.0 0.0 0.00 0.00 0.00 100 1011.6
20260510050855 61 237 0.0 0.0 0.00 0.00 0.00 100 1011.8
20260510050553 61 237 0.0 0.0 0.00 0.00 0.00 100 1011.8
20260510050443 61 237 0.0 0.0 0.00 0.00 0.00 100 1011.5
20260510050054 61 237 0.0 0.0 0.00 0.00 0.00 100 1011.5
20260510045533 61 237 0.0 0.0 0.00 0.00 0.00 100 1011.8
20260510045054 61 237 0.0 0.0 0.00 0.00 0.00 100 1011.8
20260510044614 61 237 0.0 0.0 0.00 0.00 0.00 100 1011.7
20260510044554 61 237 0.0 0.0 0.00 0.00 0.00 100 1011.8
20260510044054 61 237 0.0 0.0 0.00 0.00 0.00 100 1011.7
20260510043053 61 237 0.0 0.0 0.00 0.00 0.00 100 1011.9
20260510042534 62 237 0.0 0.0 0.00 0.00 0.00 100 1011.6
20260510042054 61 237 0.0 0.0 0.00 0.00 0.00 100 1011.6
20260510041554 61 237 0.0 0.0 0.00 0.00 0.00 100 1011.6
20260510041054 62 237 0.0 0.0 0.00 0.00 0.00 100 1011.5
20260510040554 62 237 0.0 0.0 0.00 0.00 0.00 100 1011.4
20260510040444 62 237 0.0 0.0 0.00 0.00 0.00 100 1011.3
20260510040054 62 237 0.0 0.0 0.00 0.00 0.00 100 1011.3
20260510035555 62 237 0.0 0.0 0.00 0.00 0.00 100 1011.5
20260510035440 62 237 0.0 0.0 0.00 0.00 0.00 100 1011.6
20260510035054 62 237 0.0 0.0 0.00 0.00 0.00 100 1011.6
20260510034553 62 237 0.0 0.0 0.00 0.00 0.00 100 1011.7
20260510034407 62 237 0.0 0.0 0.00 0.02 0.00 100 1011.6
20260510034054 62 237 0.0 0.0 0.00 0.02 0.00 100 1011.6
20260510033553 62 237 0.0 0.0 0.00 0.02 0.00 100 1011.6
20260510033054 62 237 0.0 0.0 0.00 0.02 0.00 100 1011.5
20260510032554 62 237 0.0 0.0 0.00 0.02 0.00 100 1011.4
20260510032054 62 237 0.0 0.0 0.00 0.02 0.00 100 1011.6
20260510031554 62 237 0.0 0.0 0.00 0.02 0.00 100 1011.7
20260510031305 62 237 0.0 0.0 0.00 0.02 0.00 100 1011.8
20260510031053 62 237 0.0 0.0 0.00 0.02 0.00 100 1011.6
20260510030554 62 237 0.0 0.0 0.00 0.02 0.00 100 1011.8
20260510030053 62 237 0.0 0.0 0.00 0.02 0.00 100 1011.8
20260510025554 62 237 0.0 0.0 0.00 0.02 0.00 100 1011.9
20260510025053 63 237 0.0 0.0 0.00 0.02 0.00 100 1011.9
20260510024553 63 237 0.0 0.0 0.00 0.02 0.00 100 1011.8
20260510024053 63 237 0.0 0.0 0.00 0.02 0.00 100 1011.8
20260510023553 63 237 0.0 0.0 0.00 0.02 0.00 100 1011.8
20260510023054 63 237 0.0 0.0 0.00 0.02 0.00 100 1011.7
20260510022553 63 237 0.0 0.0 0.00 0.02 0.00 100 1011.6
20260510022054 63 237 0.0 0.0 0.00 0.02 0.00 100 1011.7
20260510021553 63 237 0.0 0.0 0.00 0.02 0.00 100 1011.7
20260510021053 63 237 0.0 0.0 0.00 0.00 0.00 100 1011.7
20260510020554 63 237 0.0 0.0 0.00 0.00 0.00 100 1011.6
20260510020053 63 237 0.0 0.0 0.00 0.00 0.00 100 1011.5
20260510015554 63 237 0.0 0.0 0.00 0.00 0.00 100 1011.4
20260510015053 63 237 0.0 0.0 0.00 0.00 0.00 100 1011.3
20260510014554 63 237 0.0 0.0 0.00 0.00 0.00 100 1011.4
20260510014053 63 237 0.0 0.0 0.00 0.00 0.00 100 1011.3
20260510013553 64 237 0.0 0.0 0.00 0.00 0.00 100 1011.2
20260510013053 64 237 0.0 0.0 0.00 0.00 0.00 100 1011.0
20260510012553 64 237 0.0 0.0 0.00 0.00 0.00 100 1010.5
20260510012053 64 237 0.0 0.0 0.00 0.00 0.00 100 1011.0
20260510011553 64 237 0.0 0.0 0.00 0.00 0.00 100 1010.6
20260510011053 64 237 0.0 0.0 0.00 0.00 0.00 100 1010.6
20260510010553 64 237 0.0 0.0 0.00 0.00 0.00 100 1010.4
20260510010054 65 237 0.0 0.0 0.00 0.00 0.00 100 1010.6
20260510005554 65 237 0.0 0.0 0.00 0.00 0.00 100 1010.4
20260510005053 65 237 0.0 0.0 0.00 0.00 0.00 100 1010.4
20260510004553 65 237 0.0 0.0 0.00 0.00 0.00 100 1010.3
20260510004053 65 237 0.0 0.0 0.00 0.00 0.00 100 1010.2
20260510003553 66 237 0.0 0.0 0.00 0.00 0.00 100 1010.1
20260510003053 66 237 0.0 0.0 0.00 0.00 0.00 100 1010.0
20260510002556 66 237 0.0 0.0 0.00 0.00 0.00 100 1009.9
20260510002054 66 237 0.0 0.0 0.00 0.00 0.00 100 1009.8
20260510001553 66 237 0.0 0.0 0.00 0.00 0.00 100 1009.7
20260510000553 67 237 0.0 0.0 0.00 0.00 0.00 100 1009.7
20260510000053 67 237 0.0 0.0 0.00 0.00 0.00 100 1009.7
20260509235554 67 237 0.0 0.0 0.00 0.00 0.00 100 1009.7
20260509235053 67 237 0.0 0.0 0.00 0.00 0.00 100 1009.7
20260509234553 67 237 0.0 0.0 0.00 0.00 0.00 100 1009.6
20260509234052 68 237 0.0 0.0 0.00 0.00 0.00 100 1009.7
20260509233553 68 237 0.0 0.0 0.00 0.00 0.00 100 1009.5
20260509233053 68 237 0.0 0.0 0.00 0.00 0.00 100 1009.4
20260509232553 68 237 0.0 0.0 0.00 0.00 0.00 100 1009.7
20260509232053 68 237 0.0 0.0 0.00 0.00 0.00 100 1009.6
20260509231555 68 237 0.0 0.0 0.00 0.00 0.00 100 1009.5
20260509231053 68 237 0.0 0.0 0.00 0.00 0.00 100 1009.4
20260509230553 69 237 0.0 0.0 0.00 0.00 0.00 100 1009.5
20260509230054 69 237 0.0 0.0 0.00 0.00 0.00 100 1009.5
20260509225552 69 237 0.0 0.0 0.00 0.00 0.00 100 1009.4